Location: Koussan�
(15.2012°N, 12.5548°W)
Time: 12:22:38
(UTC+00:00)

Cosmos 1302 Rocket - Pass Details

Date: 20 October 2020
Orbit: 756 x 777 km, 74.0° (Epoch: 26 November)

Event Time Altitude Azimuth Distance (km) Brightness Sun altitude
Rises 18:59:17 0° 178° (S) 3,205 7.3 -8.6°
Reaches altitude 10° 19:01:45 10° 171° (S) 2,284 6.5 -9.2°
Maximum altitude 19:06:37 42° 101° (E) 1,080 4.4 -10.3°
Drops below altitude 10° 19:11:30 10° 31° (NNE) 2,299 6.1 -11.5°
Sets 19:13:59 0° 25° (NNE) 3,230 6.9 -12.1°
